Precipitable_Water
0.60 0.59 0.59 0.59 0.58 0.56 0.53 0.49 0.46 0.45 0.44 0.45 0.46 0.46 0.46 0.46 0.47 0.47 0.47 0.47 0.48 0.48 0.48 0.48 0.48 0.49 0.50 0.51 0.53 0.55 0.58 0.51 0.45 0.40 0.36 0.38 0.44 0.46 0.42 0.38 0.36 0.37 0.33 0.31 0.30 0.31 0.31 0.33 0.33 0.35 0.34 0.32 0.30 0.29 0.33 0.37 0.40 0.42 0.40 0.39 0.35 0.40 0.42 0.49 0.48 0.52 0.57 0.53 0.62 0.68 0.75 0.70 0.65 0.81 0.84 0.91 0.84 0.83 0.85 0.84 0.95 1.03 1.03 1.09 1.16 1.24 1.26 1.30
0.59 0.59 0.58 0.58 0.57 0.56 0.53 0.50 0.48 0.46 0.45 0.45 0.46 0.46 0.46 0.46 0.46 0.47 0.46 0.46 0.47 0.47 0.48 0.49 0.48 0.49 0.50 0.51 0.56 0.59 0.57 0.47 0.36 0.36 0.31 0.43 0.43 0.42 0.39 0.32 0.33 0.35 0.37 0.32 0.31 0.31 0.30 0.30 0.32 0.34 0.33 0.30 0.35 0.28 0.34 0.35 0.43 0.45 0.43 0.42 0.35 0.43 0.48 0.57 0.54 0.57 0.57 0.58 0.67 0.72 0.78 0.75 0.73 0.79 0.82 0.68 0.70 0.75 0.73 0.81 0.90 0.89 1.00 1.12 1.19 1.22 1.21 1.23
0.57 0.56 0.57 0.57 0.57 0.57 0.54 0.51 0.49 0.46 0.45 0.44 0.45 0.45 0.45 0.45 0.46 0.46 0.45 0.45 0.45 0.47 0.48 0.48 0.48 0.49 0.51 0.54 0.56 0.58 0.52 0.35 0.30 0.23 0.30 0.43 0.43 0.37 0.29 0.27 0.32 0.39 0.36 0.32 0.34 0.35 0.34 0.34 0.35 0.34 0.31 0.29 0.31 0.29 0.35 0.38 0.50 0.51 0.48 0.37 0.41 0.51 0.52 0.57 0.58 0.59 0.65 0.69 0.67 0.70 0.77 0.76 0.78 0.77 0.86 0.68 0.67 0.75 0.70 0.74 0.83 0.86 0.89 0.99 1.08 1.16 1.17 1.19
0.53 0.54 0.56 0.56 0.56 0.55 0.53 0.50 0.48 0.46 0.45 0.44 0.44 0.45 0.45 0.45 0.45 0.45 0.45 0.44 0.45 0.47 0.48 0.48 0.49 0.52 0.54 0.54 0.56 0.57 0.46 0.27 0.19 0.23 0.29 0.38 0.35 0.28 0.26 0.28 0.34 0.36 0.35 0.37 0.40 0.39 0.40 0.39 0.38 0.35 0.30 0.31 0.31 0.37 0.40 0.46 0.52 0.50 0.49 0.40 0.45 0.53 0.49 0.56 0.64 0.65 0.69 0.73 0.69 0.70 0.75 0.69 0.76 0.79 0.78 0.72 0.66 0.69 0.77 0.90 0.87 0.86 0.92 0.99 1.08 1.12 1.16 1.15
0.49 0.51 0.52 0.53 0.53 0.53 0.51 0.50 0.48 0.47 0.45 0.44 0.44 0.45 0.46 0.45 0.45 0.45 0.44 0.44 0.46 0.47 0.48 0.49 0.51 0.53 0.55 0.56 0.56 0.59 0.35 0.17 0.18 0.25 0.28 0.36 0.35 0.34 0.33 0.35 0.39 0.41 0.42 0.42 0.42 0.41 0.40 0.37 0.36 0.33 0.29 0.27 0.33 0.41 0.46 0.52 0.56 0.53 0.47 0.52 0.52 0.53 0.47 0.59 0.64 0.70 0.68 0.74 0.70 0.68 0.62 0.64 0.82 0.81 0.77 0.75 0.62 0.63 0.79 0.93 1.00 1.01 1.03 1.03 1.04 1.09 1.14 1.13
0.49 0.48 0.48 0.49 0.51 0.50 0.50 0.50 0.48 0.48 0.47 0.47 0.46 0.45 0.45 0.45 0.45 0.45 0.45 0.44 0.46 0.48 0.49 0.50 0.52 0.53 0.54 0.55 0.55 0.52 0.33 0.11 0.24 0.27 0.41 0.39 0.40 0.40 0.40 0.43 0.45 0.45 0.44 0.41 0.40 0.39 0.37 0.36 0.34 0.28 0.28 0.29 0.34 0.38 0.49 0.54 0.57 0.44 0.52 0.52 0.53 0.50 0.45 0.58 0.61 0.65 0.68 0.63 0.63 0.62 0.70 0.77 0.73 0.72 0.83 0.80 0.74 0.83 1.00 1.03 1.04 1.07 1.10 1.13 1.17 1.15 1.12 1.12
0.49 0.47 0.46 0.47 0.48 0.48 0.49 0.49 0.48 0.48 0.49 0.49 0.48 0.46 0.45 0.45 0.46 0.46 0.45 0.45 0.47 0.49 0.50 0.51 0.52 0.54 0.53 0.55 0.50 0.38 0.25 0.21 0.31 0.34 0.41 0.43 0.43 0.43 0.46 0.47 0.47 0.45 0.43 0.40 0.38 0.36 0.35 0.35 0.37 0.30 0.30 0.33 0.41 0.47 0.53 0.55 0.58 0.47 0.43 0.51 0.51 0.54 0.50 0.62 0.62 0.67 0.65 0.63 0.62 0.72 0.79 0.68 0.71 0.63 0.86 0.79 0.89 0.97 1.02 1.07 1.08 1.09 1.10 1.13 1.10 1.12 1.11 1.12
0.51 0.49 0.47 0.47 0.47 0.48 0.48 0.48 0.48 0.50 0.51 0.51 0.49 0.47 0.47 0.46 0.46 0.45 0.45 0.45 0.49 0.51 0.52 0.53 0.54 0.54 0.54 0.42 0.33 0.26 0.22 0.20 0.34 0.42 0.45 0.46 0.47 0.48 0.47 0.47 0.46 0.43 0.40 0.38 0.37 0.35 0.37 0.37 0.35 0.38 0.34 0.34 0.44 0.50 0.54 0.51 0.53 0.45 0.45 0.53 0.56 0.57 0.60 0.63 0.64 0.66 0.68 0.70 0.77 0.76 0.66 0.69 0.76 0.75 0.84 0.79 0.92 1.00 1.04 1.09 1.08 1.10 1.09 1.07 1.05 1.08 1.11 1.11
0.52 0.51 0.49 0.47 0.47 0.47 0.47 0.48 0.49 0.51 0.53 0.53 0.50 0.49 0.48 0.47 0.46 0.44 0.44 0.47 0.51 0.52 0.53 0.56 0.54 0.56 0.57 0.41 0.31 0.23 0.19 0.30 0.41 0.46 0.46 0.44 0.45 0.46 0.45 0.41 0.45 0.41 0.40 0.40 0.39 0.37 0.39 0.37 0.40 0.43 0.37 0.44 0.54 0.48 0.54 0.46 0.43 0.53 0.51 0.57 0.57 0.56 0.62 0.64 0.64 0.66 0.68 0.72 0.77 0.68 0.68 0.76 0.80 0.86 0.75 0.85 0.91 1.00 1.05 1.04 1.05 1.05 1.02 1.02 1.03 1.08 1.11 1.10
0.52 0.51 0.49 0.48 0.47 0.47 0.47 0.48 0.51 0.53 0.54 0.54 0.52 0.50 0.48 0.47 0.45 0.45 0.45 0.50 0.52 0.53 0.55 0.55 0.55 0.55 0.47 0.36 0.30 0.20 0.24 0.40 0.45 0.50 0.47 0.46 0.45 0.44 0.45 0.45 0.46 0.43 0.40 0.40 0.41 0.41 0.41 0.42 0.49 0.52 0.51 0.51 0.57 0.50 0.55 0.50 0.44 0.59 0.58 0.61 0.57 0.60 0.62 0.66 0.60 0.66 0.70 0.72 0.77 0.64 0.68 0.73 0.86 0.83 0.60 0.86 0.92 0.97 0.98 0.97 1.01 1.00 0.98 1.02 1.07 1.12 1.13 1.12
0.51 0.51 0.49 0.48 0.47 0.47 0.48 0.50 0.52 0.54 0.55 0.54 0.54 0.50 0.47 0.46 0.45 0.44 0.45 0.50 0.52 0.53 0.54 0.55 0.55 0.52 0.37 0.38 0.26 0.19 0.34 0.39 0.45 0.47 0.46 0.46 0.43 0.42 0.43 0.46 0.48 0.44 0.43 0.42 0.42 0.45 0.47 0.51 0.54 0.57 0.57 0.52 0.56 0.51 0.52 0.52 0.60 0.60 0.62 0.62 0.61 0.63 0.64 0.65 0.64 0.64 0.65 0.63 0.73 0.68 0.67 0.76 0.79 0.77 0.67 0.83 0.94 0.97 0.90 0.90 0.93 0.96 0.98 1.01 1.05 1.09 1.14 1.14
0.51 0.50 0.49 0.48 0.47 0.47 0.48 0.51 0.53 0.54 0.55 0.55 0.52 0.48 0.45 0.45 0.44 0.43 0.47 0.50 0.51 0.53 0.54 0.56 0.55 0.51 0.44 0.35 0.27 0.23 0.40 0.41 0.48 0.45 0.43 0.42 0.40 0.43 0.45 0.47 0.48 0.45 0.44 0.41 0.44 0.49 0.52 0.55 0.57 0.55 0.46 0.60 0.48 0.55 0.53 0.64 0.60 0.60 0.61 0.50 0.57 0.61 0.56 0.62 0.58 0.62 0.66 0.59 0.71 0.70 0.62 0.61 0.68 0.63 0.80 0.87 0.93 0.92 0.88 0.85 0.88 0.90 0.96 1.00 1.03 1.06 1.10 1.13
0.51 0.50 0.49 0.47 0.46 0.47 0.49 0.52 0.54 0.54 0.54 0.50 0.46 0.44 0.44 0.43 0.42 0.43 0.48 0.50 0.51 0.53 0.56 0.56 0.55 0.54 0.39 0.26 0.27 0.35 0.43 0.47 0.46 0.45 0.43 0.43 0.42 0.45 0.46 0.48 0.48 0.47 0.45 0.46 0.46 0.52 0.56 0.58 0.59 0.53 0.57 0.56 0.52 0.46 0.58 0.66 0.58 0.61 0.59 0.53 0.51 0.51 0.51 0.60 0.64 0.64 0.60 0.60 0.73 0.69 0.37 0.49 0.59 0.71 0.80 0.88 0.87 0.87 0.81 0.78 0.82 0.86 0.93 0.98 1.01 1.02 1.08 1.14
0.51 0.50 0.48 0.47 0.47 0.49 0.50 0.53 0.55 0.56 0.55 0.52 0.46 0.45 0.42 0.41 0.41 0.44 0.50 0.50 0.53 0.55 0.58 0.60 0.59 0.50 0.39 0.26 0.33 0.38 0.44 0.49 0.45 0.40 0.40 0.44 0.42 0.42 0.45 0.46 0.47 0.46 0.48 0.48 0.51 0.56 0.58 0.59 0.61 0.58 0.64 0.57 0.51 0.65 0.58 0.56 0.58 0.47 0.52 0.54 0.44 0.43 0.42 0.59 0.62 0.62 0.53 0.64 0.65 0.63 0.38 0.48 0.59 0.69 0.81 0.87 0.88 0.82 0.75 0.77 0.79 0.81 0.86 0.92 0.97 0.99 1.02 1.08
0.51 0.50 0.49 0.47 0.47 0.49 0.51 0.55 0.58 0.59 0.57 0.55 0.51 0.44 0.42 0.41 0.42 0.47 0.52 0.52 0.55 0.55 0.56 0.62 0.60 0.43 0.32 0.28 0.38 0.42 0.50 0.45 0.38 0.39 0.42 0.41 0.41 0.39 0.39 0.42 0.42 0.44 0.47 0.52 0.55 0.58 0.60 0.60 0.61 0.56 0.52 0.62 0.61 0.54 0.46 0.47 0.48 0.48 0.43 0.37 0.44 0.42 0.44 0.53 0.62 0.60 0.50 0.58 0.66 0.57 0.42 0.48 0.59 0.67 0.78 0.83 0.84 0.81 0.74 0.76 0.77 0.79 0.83 0.87 0.92 0.96 0.99 1.01
0.52 0.50 0.48 0.47 0.48 0.50 0.54 0.59 0.62 0.61 0.58 0.54 0.50 0.46 0.43 0.46 0.47 0.52 0.55 0.56 0.56 0.57 0.59 0.47 0.46 0.44 0.31 0.23 0.30 0.44 0.41 0.35 0.36 0.40 0.43 0.44 0.41 0.37 0.39 0.40 0.42 0.42 0.45 0.49 0.57 0.60 0.61 0.61 0.56 0.56 0.55 0.58 0.50 0.45 0.43 0.43 0.42 0.45 0.41 0.38 0.40 0.45 0.44 0.47 0.55 0.62 0.62 0.58 0.58 0.51 0.43 0.54 0.56 0.71 0.77 0.81 0.78 0.76 0.73 0.74 0.76 0.77 0.82 0.85 0.89 0.93 0.96 0.97
0.52 0.50 0.48 0.47 0.49 0.52 0.58 0.64 0.66 0.64 0.60 0.55 0.51 0.48 0.47 0.47 0.55 0.57 0.58 0.56 0.56 0.60 0.54 0.40 0.47 0.45 0.26 0.32 0.38 0.33 0.35 0.39 0.41 0.39 0.40 0.43 0.41 0.39 0.38 0.37 0.38 0.41 0.47 0.50 0.56 0.57 0.56 0.57 0.56 0.56 0.57 0.50 0.49 0.47 0.38 0.35 0.34 0.38 0.43 0.39 0.44 0.41 0.44 0.42 0.56 0.63 0.64 0.60 0.50 0.58 0.50 0.54 0.63 0.72 0.76 0.78 0.76 0.72 0.70 0.71 0.75 0.77 0.80 0.84 0.87 0.90 0.92 0.94
0.53 0.50 0.48 0.48 0.51 0.55 0.62 0.67 0.67 0.66 0.62 0.59 0.56 0.51 0.46 0.53 0.60 0.55 0.57 0.62 0.64 0.60 0.54 0.56 0.51 0.38 0.23 0.32 0.29 0.32 0.41 0.40 0.39 0.38 0.39 0.40 0.40 0.38 0.37 0.39 0.41 0.44 0.45 0.46 0.49 0.48 0.50 0.50 0.53 0.45 0.48 0.46 0.46 0.41 0.34 0.28 0.32 0.34 0.37 0.38 0.39 0.44 0.46 0.45 0.48 0.58 0.64 0.61 0.52 0.54 0.53 0.56 0.63 0.71 0.74 0.77 0.79 0.74 0.71 0.72 0.74 0.76 0.79 0.82 0.84 0.86 0.88 0.90
0.53 0.50 0.48 0.49 0.53 0.58 0.62 0.69 0.70 0.72 0.71 0.68 0.66 0.62 0.62 0.64 0.61 0.56 0.56 0.56 0.47 0.40 0.31 0.33 0.36 0.24 0.17 0.27 0.36 0.40 0.38 0.42 0.40 0.37 0.35 0.37 0.38 0.36 0.42 0.44 0.44 0.42 0.38 0.37 0.38 0.39 0.44 0.46 0.47 0.42 0.38 0.40 0.40 0.40 0.36 0.36 0.39 0.38 0.40 0.40 0.41 0.38 0.41 0.44 0.53 0.62 0.63 0.53 0.50 0.51 0.49 0.55 0.61 0.66 0.73 0.76 0.79 0.74 0.72 0.74 0.74 0.74 0.78 0.80 0.82 0.85 0.87 0.87
0.54 0.51 0.49 0.51 0.55 0.59 0.63 0.70 0.71 0.71 0.72 0.66 0.60 0.57 0.50 0.45 0.46 0.44 0.54 0.52 0.45 0.44 0.40 0.40 0.40 0.35 0.34 0.33 0.32 0.39 0.44 0.40 0.33 0.35 0.35 0.38 0.35 0.34 0.39 0.41 0.40 0.40 0.36 0.31 0.34 0.35 0.41 0.35 0.33 0.34 0.37 0.39 0.41 0.42 0.41 0.42 0.43 0.43 0.44 0.43 0.42 0.44 0.45 0.51 0.55 0.61 0.64 0.54 0.50 0.53 0.55 0.55 0.59 0.64 0.69 0.74 0.77 0.73 0.70 0.69 0.70 0.72 0.73 0.76 0.79 0.81 0.85 0.87
0.54 0.51 0.49 0.52 0.56 0.59 0.62 0.69 0.72 0.70 0.73 0.67 0.58 0.49 0.39 0.44 0.36 0.34 0.44 0.42 0.48 0.48 0.41 0.38 0.41 0.38 0.36 0.35 0.37 0.36 0.29 0.30 0.34 0.34 0.36 0.39 0.38 0.35 0.37 0.38 0.37 0.31 0.32 0.32 0.31 0.35 0.37 0.30 0.31 0.34 0.39 0.42 0.42 0.43 0.43 0.42 0.43 0.42 0.42 0.43 0.42 0.44 0.42 0.49 0.51 0.60 0.61 0.52 0.48 0.55 0.51 0.52 0.56 0.62 0.67 0.72 0.70 0.65 0.68 0.68 0.68 0.70 0.73 0.75 0.77 0.78 0.81 0.86
0.54 0.52 0.49 0.51 0.56 0.58 0.60 0.67 0.72 0.71 0.75 0.71 0.61 0.49 0.54 0.58 0.76 0.73 0.60 0.35 0.41 0.45 0.42 0.40 0.43 0.43 0.41 0.41 0.40 0.38 0.35 0.29 0.32 0.36 0.41 0.42 0.38 0.36 0.36 0.34 0.31 0.27 0.29 0.30 0.30 0.28 0.27 0.27 0.29 0.33 0.39 0.42 0.43 0.43 0.43 0.42 0.40 0.42 0.42 0.42 0.42 0.43 0.48 0.52 0.53 0.57 0.58 0.55 0.47 0.52 0.46 0.49 0.54 0.60 0.65 0.66 0.66 0.69 0.73 0.73 0.72 0.71 0.70 0.73 0.76 0.78 0.81 0.83
0.54 0.52 0.50 0.51 0.55 0.57 0.58 0.66 0.72 0.71 0.68 0.65 0.56 0.56 0.53 0.68 0.82 0.81 0.69 0.50 0.41 0.46 0.40 0.36 0.36 0.35 0.34 0.38 0.41 0.42 0.33 0.33 0.33 0.36 0.39 0.42 0.37 0.34 0.32 0.29 0.27 0.27 0.27 0.27 0.25 0.24 0.23 0.26 0.29 0.33 0.36 0.37 0.39 0.41 0.40 0.41 0.42 0.40 0.41 0.40 0.37 0.43 0.40 0.36 0.48 0.54 0.54 0.53 0.48 0.49 0.45 0.48 0.55 0.59 0.60 0.66 0.68 0.70 0.75 0.77 0.76 0.77 0.72 0.71 0.74 0.78 0.80 0.80
0.54 0.52 0.51 0.49 0.54 0.54 0.56 0.63 0.73 0.65 0.62 0.66 0.62 0.58 0.66 0.75 0.80 0.78 0.57 0.39 0.32 0.36 0.40 0.41 0.39 0.37 0.35 0.35 0.42 0.41 0.35 0.35 0.35 0.34 0.40 0.37 0.31 0.33 0.30 0.28 0.26 0.26 0.25 0.26 0.26 0.24 0.22 0.23 0.28 0.32 0.33 0.34 0.33 0.37 0.37 0.36 0.35 0.41 0.41 0.39 0.38 0.40 0.43 0.42 0.42 0.51 0.55 0.55 0.54 0.48 0.43 0.44 0.50 0.49 0.52 0.61 0.70 0.70 0.72 0.75 0.76 0.79 0.81 0.82 0.82 0.82 0.82 0.80
0.54 0.52 0.51 0.49 0.50 0.54 0.52 0.61 0.59 0.58 0.64 0.65 0.61 0.66 0.69 0.75 0.78 0.81 0.52 0.38 0.37 0.33 0.41 0.35 0.44 0.39 0.37 0.46 0.43 0.36 0.36 0.35 0.34 0.35 0.36 0.35 0.32 0.31 0.28 0.30 0.27 0.24 0.25 0.27 0.26 0.23 0.22 0.24 0.27 0.28 0.29 0.31 0.31 0.32 0.35 0.35 0.33 0.37 0.42 0.41 0.41 0.44 0.43 0.45 0.48 0.47 0.43 0.40 0.46 0.43 0.31 0.35 0.47 0.50 0.51 0.57 0.62 0.62 0.70 0.70 0.72 0.75 0.78 0.80 0.78 0.79 0.83 0.85
0.53 0.52 0.51 0.50 0.49 0.50 0.52 0.46 0.50 0.60 0.58 0.55 0.57 0.66 0.71 0.74 0.76 0.81 0.52 0.32 0.22 0.25 0.31 0.25 0.35 0.29 0.39 0.34 0.37 0.34 0.33 0.29 0.34 0.35 0.36 0.36 0.36 0.32 0.29 0.27 0.29 0.24 0.26 0.26 0.23 0.21 0.22 0.24 0.25 0.24 0.26 0.28 0.28 0.29 0.34 0.36 0.31 0.33 0.36 0.45 0.45 0.45 0.44 0.44 0.45 0.45 0.36 0.33 0.42 0.50 0.34 0.31 0.48 0.47 0.51 0.55 0.57 0.59 0.66 0.68 0.71 0.75 0.77 0.79 0.81 0.82 0.81 0.82
0.53 0.52 0.51 0.51 0.49 0.49 0.37 0.34 0.50 0.56 0.48 0.54 0.62 0.67 0.71 0.72 0.79 0.69 0.44 0.24 0.19 0.26 0.24 0.27 0.32 0.29 0.38 0.33 0.34 0.33 0.23 0.26 0.34 0.35 0.34 0.36 0.32 0.35 0.28 0.26 0.27 0.27 0.25 0.25 0.20 0.18 0.24 0.22 0.22 0.23 0.25 0.24 0.24 0.24 0.31 0.35 0.32 0.31 0.42 0.46 0.46 0.45 0.43 0.44 0.45 0.44 0.40 0.48 0.49 0.50 0.47 0.36 0.35 0.44 0.55 0.56 0.54 0.56 0.60 0.65 0.69 0.74 0.76 0.78 0.81 0.83 0.82 0.83
0.52 0.52 0.51 0.51 0.50 0.48 0.39 0.44 0.43 0.40 0.46 0.57 0.66 0.68 0.70 0.73 0.77 0.65 0.38 0.17 0.16 0.29 0.21 0.28 0.30 0.37 0.35 0.33 0.34 0.30 0.30 0.32 0.27 0.30 0.35 0.36 0.35 0.32 0.30 0.25 0.24 0.21 0.22 0.22 0.16 0.20 0.22 0.21 0.22 0.21 0.22 0.21 0.21 0.24 0.30 0.36 0.34 0.35 0.43 0.48 0.45 0.47 0.46 0.46 0.45 0.42 0.43 0.43 0.36 0.45 0.49 0.37 0.36 0.45 0.57 0.56 0.48 0.52 0.55 0.61 0.67 0.71 0.75 0.77 0.79 0.83 0.85 0.87
0.51 0.51 0.51 0.51 0.51 0.49 0.50 0.41 0.41 0.37 0.51 0.62 0.68 0.71 0.71 0.72 0.63 0.44 0.27 0.16 0.22 0.28 0.34 0.26 0.36 0.35 0.35 0.33 0.31 0.31 0.30 0.31 0.26 0.31 0.35 0.35 0.35 0.32 0.27 0.27 0.26 0.23 0.25 0.24 0.19 0.20 0.22 0.23 0.23 0.24 0.23 0.20 0.21 0.25 0.32 0.35 0.32 0.41 0.47 0.50 0.50 0.50 0.49 0.47 0.44 0.43 0.42 0.39 0.32 0.39 0.45 0.35 0.36 0.47 0.49 0.51 0.48 0.47 0.53 0.59 0.65 0.70 0.73 0.75 0.77 0.80 0.84 0.87
0.50 0.51 0.51 0.52 0.48 0.47 0.40 0.44 0.36 0.45 0.59 0.65 0.69 0.72 0.71 0.62 0.48 0.30 0.22 0.13 0.31 0.20 0.32 0.31 0.35 0.30 0.35 0.27 0.28 0.29 0.28 0.29 0.31 0.32 0.33 0.30 0.32 0.33 0.31 0.33 0.27 0.24 0.24 0.25 0.22 0.22 0.22 0.26 0.26 0.25 0.24 0.24 0.23 0.26 0.33 0.35 0.38 0.45 0.46 0.45 0.45 0.46 0.45 0.47 0.46 0.43 0.39 0.31 0.35 0.43 0.45 0.42 0.32 0.43 0.47 0.45 0.45 0.54 0.57 0.61 0.66 0.71 0.74 0.76 0.80 0.81 0.82 0.83
0.48 0.50 0.51 0.52 0.38 0.40 0.38 0.28 0.35 0.51 0.59 0.65 0.69 0.66 0.60 0.46 0.33 0.24 0.17 0.21 0.36 0.29 0.36 0.31 0.35 0.39 0.30 0.25 0.24 0.28 0.28 0.30 0.30 0.30 0.28 0.30 0.29 0.31 0.30 0.28 0.29 0.23 0.23 0.22 0.22 0.23 0.22 0.23 0.23 0.26 0.29 0.28 0.26 0.25 0.34 0.37 0.40 0.40 0.41 0.40 0.40 0.40 0.44 0.41 0.40 0.41 0.31 0.28 0.38 0.46 0.46 0.45 0.32 0.39 0.52 0.58 0.63 0.63 0.62 0.59 0.63 0.67 0.71 0.74 0.79 0.81 0.81 0.82
0.48 0.49 0.51 0.47 0.45 0.47 0.29 0.26 0.39 0.54 0.58 0.64 0.63 0.51 0.48 0.31 0.34 0.22 0.21 0.39 0.21 0.27 0.31 0.30 0.35 0.35 0.31 0.28 0.26 0.27 0.27 0.28 0.29 0.28 0.26 0.27 0.28 0.27 0.28 0.24 0.24 0.19 0.18 0.20 0.19 0.23 0.21 0.22 0.26 0.27 0.32 0.31 0.27 0.27 0.32 0.36 0.38 0.38 0.39 0.38 0.31 0.30 0.33 0.27 0.34 0.28 0.29 0.28 0.40 0.47 0.48 0.41 0.40 0.48 0.55 0.60 0.64 0.66 0.67 0.68 0.67 0.69 0.70 0.75 0.80 0.81 0.82 0.83
0.47 0.49 0.50 0.46 0.47 0.40 0.40 0.41 0.53 0.56 0.60 0.62 0.52 0.49 0.35 0.28 0.22 0.30 0.28 0.33 0.24 0.34 0.32 0.40 0.34 0.34 0.34 0.29 0.26 0.28 0.29 0.26 0.29 0.28 0.28 0.31 0.32 0.31 0.31 0.29 0.28 0.24 0.17 0.21 0.20 0.20 0.20 0.25 0.26 0.28 0.30 0.33 0.31 0.25 0.28 0.29 0.35 0.35 0.34 0.33 0.29 0.25 0.25 0.23 0.27 0.30 0.32 0.37 0.44 0.44 0.48 0.38 0.47 0.52 0.64 0.61 0.66 0.71 0.74 0.74 0.74 0.73 0.72 0.74 0.77 0.79 0.80 0.82
0.48 0.49 0.41 0.46 0.48 0.46 0.43 0.50 0.55 0.58 0.55 0.55 0.48 0.42 0.34 0.25 0.26 0.42 0.34 0.35 0.31 0.39 0.40 0.36 0.35 0.34 0.32 0.27 0.29 0.29 0.26 0.28 0.27 0.27 0.29 0.29 0.32 0.28 0.29 0.30 0.31 0.26 0.23 0.23 0.19 0.19 0.16 0.17 0.23 0.28 0.25 0.34 0.32 0.30 0.30 0.29 0.32 0.34 0.37 0.32 0.27 0.26 0.23 0.20 0.24 0.22 0.25 0.29 0.37 0.47 0.38 0.34 0.38 0.43 0.68 0.67 0.71 0.75 0.78 0.77 0.77 0.76 0.76 0.78 0.80 0.79 0.79 0.79
0.48 0.45 0.49 0.56 0.55 0.50 0.46 0.48 0.54 0.58 0.56 0.51 0.42 0.38 0.26 0.26 0.34 0.32 0.33 0.36 0.37 0.39 0.37 0.41 0.34 0.30 0.28 0.29 0.31 0.29 0.28 0.25 0.27 0.27 0.27 0.27 0.27 0.30 0.28 0.29 0.31 0.31 0.26 0.21 0.23 0.21 0.19 0.23 0.28 0.33 0.33 0.35 0.32 0.34 0.35 0.34 0.33 0.36 0.37 0.37 0.29 0.27 0.32 0.23 0.28 0.29 0.30 0.30 0.31 0.37 0.36 0.45 0.46 0.64 0.70 0.74 0.74 0.73 0.77 0.75 0.75 0.73 0.75 0.77 0.74 0.74 0.75 0.77
0.44 0.43 0.60 0.51 0.44 0.48 0.52 0.48 0.55 0.58 0.49 0.44 0.38 0.31 0.27 0.34 0.31 0.39 0.37 0.47 0.42 0.35 0.36 0.36 0.35 0.26 0.28 0.27 0.31 0.30 0.30 0.26 0.26 0.26 0.27 0.29 0.30 0.29 0.32 0.32 0.32 0.31 0.27 0.23 0.25 0.20 0.21 0.21 0.31 0.31 0.35 0.36 0.36 0.35 0.34 0.37 0.24 0.33 0.33 0.28 0.31 0.38 0.35 0.31 0.34 0.38 0.37 0.32 0.28 0.42 0.40 0.46 0.58 0.61 0.67 0.69 0.69 0.69 0.73 0.73 0.72 0.71 0.74 0.74 0.71 0.73 0.75 0.76
0.39 0.50 0.51 0.50 0.49 0.55 0.53 0.52 0.57 0.51 0.45 0.43 0.34 0.28 0.39 0.43 0.50 0.43 0.49 0.42 0.41 0.43 0.35 0.25 0.26 0.27 0.24 0.24 0.27 0.27 0.28 0.27 0.26 0.25 0.25 0.31 0.27 0.31 0.30 0.33 0.38 0.33 0.35 0.32 0.26 0.32 0.21 0.23 0.31 0.29 0.28 0.35 0.41 0.40 0.37 0.37 0.35 0.33 0.28 0.32 0.41 0.46 0.42 0.31 0.25 0.31 0.29 0.24 0.28 0.38 0.34 0.36 0.37 0.36 0.64 0.64 0.62 0.65 0.69 0.72 0.72 0.71 0.74 0.72 0.71 0.73 0.75 0.76
0.44 0.48 0.53 0.50 0.54 0.64 0.61 0.54 0.50 0.44 0.42 0.40 0.30 0.35 0.49 0.44 0.56 0.51 0.55 0.49 0.47 0.43 0.33 0.29 0.30 0.37 0.25 0.27 0.23 0.26 0.28 0.23 0.25 0.25 0.26 0.29 0.27 0.34 0.31 0.31 0.37 0.36 0.37 0.38 0.31 0.29 0.29 0.22 0.27 0.30 0.31 0.35 0.40 0.40 0.35 0.37 0.39 0.31 0.31 0.44 0.31 0.27 0.26 0.33 0.29 0.22 0.21 0.22 0.25 0.32 0.38 0.36 0.38 0.38 0.52 0.53 0.57 0.60 0.65 0.70 0.69 0.69 0.71 0.71 0.72 0.73 0.75 0.77
0.51 0.49 0.40 0.53 0.67 0.71 0.62 0.58 0.44 0.37 0.36 0.33 0.33 0.33 0.45 0.50 0.59 0.54 0.57 0.51 0.49 0.42 0.32 0.34 0.30 0.33 0.35 0.28 0.30 0.31 0.29 0.22 0.26 0.24 0.23 0.27 0.25 0.33 0.34 0.34 0.33 0.39 0.38 0.39 0.31 0.36 0.33 0.24 0.25 0.31 0.30 0.34 0.36 0.34 0.27 0.31 0.37 0.38 0.40 0.36 0.41 0.35 0.30 0.27 0.28 0.29 0.27 0.24 0.24 0.27 0.34 0.29 0.41 0.45 0.53 0.55 0.61 0.64 0.66 0.68 0.67 0.70 0.72 0.72 0.72 0.73 0.74 0.75
0.43 0.41 0.36 0.63 0.70 0.73 0.65 0.49 0.36 0.31 0.27 0.26 0.35 0.37 0.51 0.46 0.55 0.61 0.60 0.52 0.43 0.41 0.37 0.35 0.40 0.33 0.35 0.34 0.35 0.28 0.32 0.27 0.25 0.25 0.25 0.29 0.29 0.36 0.36 0.38 0.35 0.37 0.39 0.40 0.36 0.39 0.32 0.33 0.23 0.28 0.33 0.31 0.26 0.31 0.29 0.32 0.29 0.31 0.32 0.31 0.34 0.35 0.41 0.37 0.37 0.31 0.27 0.25 0.24 0.24 0.23 0.30 0.43 0.56 0.58 0.61 0.65 0.66 0.68 0.66 0.68 0.71 0.72 0.74 0.74 0.73 0.74 0.76
0.52 0.45 0.43 0.68 0.67 0.74 0.59 0.37 0.23 0.22 0.22 0.34 0.42 0.45 0.48 0.46 0.54 0.57 0.60 0.60 0.52 0.55 0.45 0.40 0.40 0.36 0.37 0.35 0.33 0.37 0.31 0.29 0.27 0.26 0.26 0.29 0.30 0.27 0.37 0.38 0.39 0.36 0.40 0.38 0.38 0.39 0.32 0.30 0.24 0.27 0.26 0.25 0.30 0.38 0.38 0.35 0.36 0.35 0.34 0.31 0.33 0.30 0.29 0.25 0.25 0.38 0.35 0.28 0.24 0.23 0.22 0.33 0.49 0.65 0.65 0.67 0.71 0.70 0.72 0.70 0.70 0.72 0.73 0.74 0.74 0.76 0.77 0.76
0.38 0.33 0.43 0.69 0.69 0.63 0.46 0.24 0.20 0.28 0.25 0.23 0.29 0.44 0.45 0.59 0.52 0.54 0.55 0.60 0.53 0.47 0.54 0.46 0.47 0.44 0.41 0.40 0.40 0.37 0.32 0.27 0.29 0.28 0.29 0.29 0.33 0.33 0.39 0.46 0.43 0.43 0.37 0.33 0.35 0.43 0.38 0.35 0.27 0.24 0.27 0.29 0.34 0.41 0.45 0.45 0.44 0.42 0.40 0.36 0.39 0.36 0.33 0.28 0.21 0.28 0.35 0.34 0.36 0.33 0.27 0.33 0.57 0.66 0.69 0.71 0.73 0.74 0.73 0.73 0.72 0.73 0.74 0.75 0.77 0.78 0.79 0.78
0.34 0.39 0.61 0.71 0.74 0.60 0.44 0.28 0.23 0.21 0.21 0.28 0.39 0.40 0.53 0.51 0.49 0.57 0.51 0.55 0.47 0.52 0.47 0.44 0.46 0.43 0.46 0.44 0.42 0.39 0.35 0.28 0.30 0.28 0.32 0.32 0.35 0.39 0.44 0.45 0.47 0.43 0.42 0.39 0.39 0.45 0.47 0.33 0.26 0.28 0.32 0.36 0.39 0.42 0.45 0.45 0.43 0.39 0.42 0.43 0.39 0.34 0.35 0.31 0.29 0.32 0.29 0.32 0.29 0.30 0.26 0.35 0.57 0.69 0.71 0.75 0.76 0.76 0.76 0.77 0.76 0.76 0.77 0.78 0.78 0.78 0.77 0.76
0.35 0.42 0.57 0.72 0.79 0.66 0.43 0.19 0.15 0.18 0.24 0.30 0.32 0.38 0.50 0.54 0.50 0.50 0.47 0.53 0.47 0.48 0.45 0.45 0.49 0.50 0.47 0.48 0.47 0.38 0.38 0.27 0.32 0.33 0.31 0.37 0.35 0.44 0.46 0.46 0.47 0.41 0.38 0.37 0.32 0.43 0.31 0.34 0.29 0.25 0.24 0.27 0.30 0.34 0.35 0.42 0.42 0.38 0.37 0.41 0.42 0.41 0.39 0.38 0.38 0.40 0.28 0.31 0.32 0.27 0.21 0.32 0.53 0.69 0.72 0.74 0.74 0.72 0.73 0.78 0.79 0.76 0.77 0.77 0.78 0.78 0.77 0.76
0.37 0.47 0.60 0.66 0.72 0.65 0.38 0.30 0.23 0.22 0.26 0.27 0.27 0.32 0.40 0.47 0.60 0.58 0.53 0.50 0.56 0.53 0.49 0.46 0.50 0.51 0.48 0.50 0.46 0.45 0.42 0.35 0.29 0.34 0.37 0.37 0.37 0.44 0.45 0.46 0.46 0.43 0.44 0.46 0.41 0.43 0.34 0.35 0.30 0.22 0.20 0.18 0.18 0.20 0.24 0.28 0.32 0.38 0.40 0.38 0.38 0.35 0.34 0.33 0.27 0.31 0.24 0.32 0.34 0.28 0.26 0.41 0.56 0.64 0.67 0.70 0.71 0.71 0.75 0.77 0.80 0.80 0.77 0.76 0.77 0.77 0.76 0.75
0.30 0.27 0.49 0.57 0.60 0.56 0.49 0.45 0.37 0.31 0.30 0.29 0.26 0.35 0.46 0.45 0.57 0.66 0.62 0.56 0.61 0.59 0.56 0.54 0.54 0.55 0.48 0.46 0.42 0.40 0.37 0.39 0.33 0.32 0.33 0.35 0.38 0.42 0.46 0.50 0.45 0.44 0.49 0.49 0.46 0.43 0.34 0.37 0.36 0.32 0.27 0.25 0.27 0.31 0.38 0.41 0.38 0.33 0.37 0.40 0.39 0.40 0.40 0.37 0.35 0.30 0.26 0.33 0.32 0.35 0.34 0.39 0.46 0.54 0.59 0.64 0.67 0.67 0.70 0.74 0.74 0.75 0.76 0.77 0.77 0.76 0.74 0.74
0.43 0.35 0.42 0.35 0.48 0.50 0.47 0.45 0.38 0.39 0.32 0.37 0.28 0.40 0.43 0.50 0.59 0.59 0.71 0.56 0.62 0.59 0.56 0.54 0.53 0.45 0.45 0.44 0.41 0.40 0.40 0.37 0.37 0.35 0.34 0.36 0.41 0.43 0.49 0.50 0.51 0.54 0.52 0.47 0.51 0.42 0.35 0.32 0.36 0.36 0.35 0.34 0.37 0.38 0.43 0.43 0.38 0.40 0.39 0.39 0.43 0.42 0.42 0.37 0.32 0.29 0.37 0.33 0.27 0.38 0.42 0.36 0.42 0.52 0.58 0.61 0.66 0.69 0.71 0.72 0.73 0.74 0.74 0.75 0.75 0.73 0.72 0.72
0.30 0.44 0.55 0.58 0.35 0.33 0.37 0.36 0.42 0.40 0.42 0.40 0.38 0.45 0.45 0.49 0.55 0.53 0.66 0.68 0.69 0.63 0.51 0.51 0.53 0.50 0.50 0.44 0.45 0.37 0.37 0.36 0.36 0.33 0.39 0.40 0.40 0.44 0.43 0.48 0.45 0.47 0.47 0.43 0.50 0.40 0.33 0.30 0.38 0.36 0.36 0.40 0.42 0.41 0.44 0.43 0.43 0.42 0.42 0.41 0.39 0.40 0.39 0.35 0.36 0.38 0.37 0.30 0.27 0.37 0.42 0.39 0.46 0.53 0.59 0.62 0.66 0.67 0.69 0.70 0.74 0.75 0.74 0.74 0.72 0.69 0.68 0.68
0.53 0.54 0.57 0.64 0.41 0.46 0.43 0.46 0.44 0.43 0.40 0.43 0.44 0.48 0.46 0.49 0.52 0.62 0.64 0.63 0.63 0.59 0.56 0.45 0.45 0.50 0.50 0.51 0.46 0.39 0.39 0.31 0.31 0.39 0.38 0.39 0.39 0.41 0.39 0.42 0.45 0.47 0.44 0.40 0.43 0.44 0.35 0.33 0.38 0.39 0.37 0.39 0.42 0.42 0.44 0.40 0.41 0.41 0.40 0.40 0.40 0.37 0.37 0.36 0.37 0.39 0.38 0.35 0.37 0.40 0.42 0.43 0.51 0.57 0.61 0.66 0.71 0.70 0.72 0.75 0.74 0.72 0.71 0.70 0.68 0.66 0.66 0.66
0.38 0.43 0.44 0.59 0.57 0.51 0.50 0.47 0.44 0.43 0.37 0.47 0.40 0.48 0.50 0.51 0.54 0.63 0.70 0.66 0.55 0.57 0.63 0.49 0.49 0.52 0.52 0.51 0.49 0.42 0.42 0.39 0.38 0.35 0.41 0.40 0.42 0.43 0.41 0.41 0.39 0.42 0.41 0.37 0.37 0.42 0.31 0.33 0.41 0.41 0.37 0.38 0.42 0.44 0.43 0.41 0.39 0.36 0.40 0.40 0.39 0.38 0.37 0.38 0.38 0.40 0.43 0.41 0.43 0.43 0.42 0.43 0.57 0.66 0.67 0.73 0.73 0.73 0.71 0.69 0.69 0.70 0.69 0.68 0.66 0.65 0.65 0.63
0.58 0.64 0.65 0.50 0.43 0.49 0.50 0.47 0.41 0.41 0.37 0.43 0.41 0.51 0.52 0.55 0.58 0.69 0.70 0.75 0.66 0.59 0.59 0.51 0.54 0.54 0.56 0.53 0.51 0.47 0.50 0.47 0.44 0.43 0.45 0.43 0.38 0.47 0.41 0.44 0.46 0.37 0.36 0.33 0.33 0.37 0.32 0.33 0.41 0.40 0.33 0.35 0.41 0.41 0.41 0.41 0.39 0.37 0.36 0.38 0.37 0.36 0.32 0.35 0.36 0.43 0.39 0.38 0.41 0.42 0.38 0.40 0.56 0.66 0.69 0.70 0.70 0.69 0.67 0.67 0.67 0.68 0.69 0.68 0.66 0.64 0.63 0.61
0.66 0.71 0.71 0.61 0.43 0.53 0.46 0.49 0.46 0.40 0.35 0.46 0.47 0.52 0.53 0.56 0.67 0.71 0.63 0.73 0.74 0.71 0.67 0.59 0.58 0.56 0.53 0.51 0.49 0.50 0.53 0.53 0.52 0.52 0.51 0.53 0.54 0.55 0.53 0.51 0.48 0.41 0.35 0.31 0.35 0.31 0.30 0.30 0.31 0.33 0.30 0.32 0.39 0.41 0.38 0.38 0.34 0.30 0.31 0.37 0.40 0.39 0.40 0.41 0.43 0.46 0.44 0.45 0.39 0.35 0.35 0.51 0.58 0.65 0.61 0.64 0.66 0.66 0.66 0.66 0.66 0.67 0.68 0.67 0.65 0.63 0.61 0.59
Wind_Speed
15 15 15 15 15 15 14 14 13 12 11 10 10 9 8 7 7 6 6 5 5 5 5 5 4 4 3 3 2 1 1 2 2 2 3 3 4 4 4 5 6 8 9 10 10 10 9 7 6 5 5 4 3 3 2 2 2 2 3 3 3 3 4 4 3 4 5 5 5 6 5 4 6 7 7 7 7 6 6 5 4 4 4 4 4 4 4 4
15 15 15 15 16 15 15 14 13 12 11 11 10 9 8 7 7 6 6 5 5 5 5 5 4 3 3 2 2 1 1 2 2 2 2 3 5 5 6 7 8 10 11 10 10 10 8 6 5 4 4 3 3 3 3 2 3 3 3 4 3 3 4 5 3 4 5 4 4 6 5 5 6 7 7 6 6 6 5 4 4 3 3 3 3 3 3 3
15 15 15 16 16 16 16 15 13 12 11 11 10 9 8 7 7 6 6 6 5 5 5 4 4 3 3 2 2 1 1 2 2 3 3 4 6 6 8 9 11 12 11 10 9 8 7 6 4 4 4 3 3 3 3 3 3 3 3 4 4 3 5 6 4 4 4 3 4 5 5 5 6 6 5 4 4 5 4 3 3 2 3 2 2 2 2 2
15 15 15 16 16 17 16 15 14 12 12 11 10 9 9 8 7 7 6 6 6 5 5 4 4 3 3 2 2 1 2 2 3 3 3 6 8 9 10 12 12 12 10 9 8 6 5 4 3 4 5 4 3 4 3 2 3 3 4 4 4 4 6 7 6 5 5 5 4 4 5 5 5 5 4 3 3 4 4 4 3 2 2 2 2 2 1 1
16 16 16 16 17 17 16 15 14 13 12 11 10 9 9 8 7 7 7 6 6 5 4 4 3 3 2 2 2 2 2 4 4 3 5 8 10 11 12 13 13 11 9 7 5 4 3 3 3 4 5 4 3 3 2 3 3 4 5 5 6 6 6 7 7 6 5 5 5 5 6 5 4 6 6 5 4 4 4 4 4 3 3 3 2 2 1 1
16 16 16 16 17 17 16 15 14 13 13 12 10 9 8 7 7 7 6 6 5 5 4 3 3 3 2 2 2 2 3 5 5 6 9 11 12 12 13 13 11 9 7 5 3 3 3 4 5 5 4 4 3 3 3 3 4 4 5 7 8 8 7 7 7 7 6 6 6 5 5 5 5 6 6 6 6 5 4 4 4 4 3 3 3 3 2 2
16 16 16 17 17 17 16 16 15 14 13 11 10 9 8 7 7 6 6 5 4 4 3 3 3 3 2 1 2 3 5 6 7 9 11 13 13 13 13 11 9 7 5 4 3 3 4 6 6 6 5 4 4 4 5 5 6 5 6 7 9 10 9 8 8 8 8 8 7 6 7 6 6 6 6 7 7 6 5 5 4 4 4 4 4 4 4 3
16 16 17 17 18 17 17 16 15 14 12 11 10 8 7 7 6 5 5 4 3 2 2 2 2 2 1 1 3 5 7 8 8 11 13 13 13 13 12 9 7 5 4 4 4 4 5 6 6 6 5 4 5 5 6 7 7 6 6 7 9 10 10 11 11 11 10 9 9 9 9 8 8 7 7 7 7 6 5 5 5 5 5 5 5 4 4 4
16 17 17 18 18 18 17 16 15 13 12 10 9 8 7 6 5 5 4 3 3 2 2 2 1 1 1 2 5 6 8 8 9 12 13 13 12 11 10 7 6 5 4 4 5 5 5 5 5 5 6 5 6 7 5 5 6 6 8 8 10 11 11 12 13 12 11 9 9 10 9 8 8 8 7 7 7 6 6 6 6 6 6 6 6 5 5 4
17 17 18 18 18 18 17 15 14 13 11 10 8 7 6 5 5 4 4 3 3 3 2 2 1 1 2 3 6 8 9 9 11 13 13 13 12 10 8 6 5 5 4 5 6 6 5 5 6 7 8 7 6 6 5 5 7 8 10 10 11 11 11 12 12 12 12 9 9 10 9 8 8 7 7 7 7 7 6 7 6 6 7 7 7 6 6 5
17 18 18 19 19 18 16 15 14 13 11 9 8 6 6 5 4 4 3 3 3 2 2 2 1 1 3 5 7 9 10 10 12 13 13 12 11 9 7 6 6 6 5 5 6 6 6 7 8 8 7 6 7 7 7 9 10 11 11 11 11 12 12 12 12 11 11 10 10 12 11 10 9 8 7 6 7 7 7 7 7 7 7 7 6 7 7 7
17 18 19 19 18 17 16 15 14 12 10 8 7 6 5 4 4 3 3 3 2 2 2 2 1 2 4 6 9 10 10 11 12 13 13 11 10 9 8 7 6 6 5 5 5 6 7 8 8 7 7 8 8 8 9 10 10 10 10 10 10 11 11 11 11 10 10 9 9 10 11 11 10 9 8 7 8 8 8 8 7 7 7 6 6 6 7 7
18 18 19 18 18 17 16 14 13 11 9 8 6 5 5 4 3 3 3 2 2 2 1 1 1 3 5 7 10 11 11 12 12 12 12 10 9 8 8 7 6 6 5 5 5 6 7 8 9 9 9 8 7 8 10 9 9 8 8 9 9 10 10 10 10 11 11 10 8 9 10 10 9 9 8 8 9 9 9 9 8 7 7 7 6 6 7 7
18 19 19 18 17 17 15 14 12 10 9 8 6 5 4 3 2 3 3 2 1 1 1 2 2 3 6 8 11 11 11 12 12 12 11 10 9 8 7 6 6 6 5 5 6 7 8 10 11 10 9 9 9 12 11 8 7 7 7 8 8 9 8 8 9 10 11 11 11 12 12 10 9 9 9 9 9 10 10 9 9 8 7 7 7 7 7 7
18 18 18 17 17 16 15 14 12 11 9 7 5 4 3 1 2 3 3 2 1 1 1 2 2 4 7 9 11 12 12 12 12 11 11 10 9 8 7 6 6 6 6 7 8 9 11 12 11 9 9 11 13 12 9 7 6 6 7 6 7 9 8 8 9 10 10 9 11 13 12 11 10 9 9 9 9 10 10 10 9 9 8 8 8 7 7 6
18 18 17 17 17 16 15 13 12 11 9 6 4 2 1 2 3 4 3 2 1 1 1 1 2 5 8 10 12 13 12 12 11 11 11 10 9 8 7 7 7 6 6 8 10 11 12 11 10 9 11 12 11 10 9 8 6 6 7 7 7 9 8 8 10 11 11 10 12 13 12 11 11 10 10 10 10 10 10 10 10 9 9 8 8 8 7 6
17 17 17 17 16 15 14 13 12 10 8 5 3 2 3 4 5 4 3 2 2 1 1 1 3 6 9 11 13 13 12 11 10 11 10 10 10 8 7 7 7 7 9 10 11 11 10 9 9 9 10 9 8 9 9 8 6 6 7 8 8 8 9 9 9 10 12 12 13 14 13 12 12 11 11 11 11 11 11 11 10 10 10 9 9 8 8 7
17 17 16 16 15 14 13 12 11 9 7 5 4 3 4 5 5 5 4 3 2 2 2 2 4 7 11 11 13 13 12 11 10 11 10 9 10 9 8 8 8 8 10 10 10 9 8 8 8 8 8 8 7 8 8 7 8 8 8 9 9 9 9 10 9 9 11 13 13 14 14 13 12 12 12 12 11 12 12 11 11 11 11 11 10 9 8 7
16 16 15 15 13 12 12 11 10 9 7 5 4 4 5 5 4 5 4 4 3 3 3 3 5 10 12 11 13 13 12 12 11 11 10 9 9 9 9 9 9 10 10 9 8 7 8 8 7 8 8 7 7 7 8 7 9 10 9 10 9 9 9 9 9 9 11 13 13 13 13 13 12 12 12 12 11 12 12 12 12 11 11 11 11 10 9 9
16 15 15 13 12 11 11 10 9 9 8 5 3 5 5 4 4 4 3 3 4 3 3 5 8 10 11 12 12 12 12 12 12 11 10 10 10 9 9 10 10 10 9 8 7 6 8 8 7 8 8 7 7 7 8 9 10 11 10 9 9 10 9 8 9 9 10 12 12 12 13 13 12 11 11 11 12 13 13 13 13 12 12 12 12 11 10 9
15 15 14 12 11 10 10 8 8 8 7 6 5 6 6 4 4 3 2 3 3 3 4 6 9 9 9 12 12 13 13 12 12 11 11 10 10 10 10 10 9 8 7 7 7 7 7 7 6 8 8 8 8 8 9 10 10 10 9 9 9 9 8 8 9 8 9 11 11 12 13 13 12 11 11 12 12 13 13 13 13 13 13 12 12 12 11 10
14 14 13 11 10 10 9 7 6 6 6 6 7 7 6 4 3 3 3 3 2 4 5 7 8 8 9 12 12 14 14 13 12 11 11 12 11 11 9 9 9 7 6 7 7 5 6 6 6 8 9 9 8 8 10 9 9 9 8 9 8 8 8 8 8 8 10 11 11 12 14 13 11 11 12 13 12 12 12 12 13 13 13 13 12 12 11 11
14 13 12 11 9 9 8 6 4 4 5 5 6 7 5 3 3 3 4 4 2 4 6 7 8 9 11 12 14 16 15 14 13 11 12 12 10 10 9 8 7 6 6 6 7 6 6 6 6 9 11 10 8 7 9 9 7 8 8 9 8 7 8 8 8 8 10 11 11 12 13 13 12 11 12 13 12 12 12 13 13 13 13 13 12 12 12 11
13 13 12 10 9 9 8 5 2 3 4 3 4 5 4 3 3 4 5 5 4 5 7 8 9 11 12 13 15 15 14 14 13 11 12 11 9 8 8 7 7 6 5 7 8 8 6 5 6 9 9 9 8 7 9 9 7 7 7 8 8 8 9 9 9 9 10 10 11 11 12 12 11 12 11 12 12 13 13 13 14 13 13 13 13 12 12 12
13 12 12 10 9 9 7 3 0 2 2 1 3 1 2 2 2 4 5 6 5 5 7 9 10 12 13 14 14 14 14 13 12 12 10 10 9 7 7 7 7 5 5 7 8 7 5 5 7 9 8 8 8 7 8 8 8 7 5 6 9 10 11 11 11 10 9 8 7 9 10 9 9 11 11 10 11 12 13 14 14 13 13 13 13 13 13 12
12 12 12 10 9 9 6 2 1 2 2 1 1 1 1 1 2 5 5 6 7 6 7 10 11 12 13 13 13 14 13 11 11 11 9 8 9 7 7 6 5 6 6 7 7 6 5 5 6 7 7 7 7 6 6 8 8 7 6 7 9 10 11 11 10 9 8 6 5 7 8 7 8 10 10 9 11 12 12 13 14 13 13 13 13 12 13 13
12 11 11 10 9 8 4 3 3 3 2 2 2 1 1 0 3 5 5 6 7 6 8 10 11 13 13 12 13 14 12 10 10 10 8 8 8 7 6 5 5 6 8 8 7 6 6 4 5 6 7 6 6 5 7 8 9 7 6 9 10 10 10 9 9 8 6 6 6 7 8 8 8 8 8 9 11 12 12 12 13 14 14 13 13 12 12 13
11 11 10 10 9 6 4 4 4 3 4 3 2 1 1 2 5 6 7 7 6 8 10 10 12 14 11 11 13 13 11 10 9 8 7 8 7 6 6 5 7 8 7 9 7 6 6 5 6 7 7 5 5 6 9 10 9 6 7 9 9 9 8 7 8 7 6 7 7 6 7 8 6 6 7 9 11 11 11 11 12 13 14 13 14 13 12 12
11 10 10 9 8 6 4 4 4 4 4 3 2 2 3 4 6 7 7 7 7 9 11 11 12 12 10 11 12 11 10 10 9 8 7 7 6 6 6 6 8 9 6 8 8 7 5 6 7 8 6 5 5 6 9 10 8 8 10 10 8 8 7 6 6 6 6 7 5 4 5 6 5 5 7 9 10 10 10 10 10 12 13 13 13 13 13 12
11 10 10 9 8 6 5 5 4 5 4 3 3 4 4 5 7 7 6 7 9 9 10 11 10 10 10 11 10 9 10 9 9 8 6 7 6 5 6 6 7 8 6 6 7 6 4 5 6 6 5 5 6 6 7 9 10 10 10 9 8 6 5 5 4 5 5 4 2 3 4 5 4 4 5 7 8 8 8 9 9 11 12 12 12 12 12 12
11 10 9 8 8 6 5 4 4 4 4 4 4 5 5 6 8 7 6 8 9 9 10 10 9 9 10 11 10 9 10 8 8 7 6 6 5 4 6 6 5 6 6 6 5 4 3 4 5 4 4 5 7 7 6 7 10 10 8 8 8 5 4 3 2 3 4 3 1 2 4 4 5 4 4 6 7 7 7 8 9 10 10 10 11 11 11 11
11 10 9 8 7 6 5 5 4 4 4 4 5 6 7 7 7 7 7 7 8 9 10 10 9 8 9 10 10 10 10 9 7 7 7 6 4 4 5 7 7 6 6 6 5 4 4 4 4 4 5 6 7 7 6 5 7 8 8 8 7 4 3 2 1 2 2 1 1 2 4 4 4 4 3 4 6 6 6 7 8 9 9 9 10 10 10 11
11 10 9 7 5 4 5 5 5 4 4 5 6 6 8 8 7 8 7 7 9 10 10 10 9 8 9 9 10 10 10 9 7 7 7 6 5 5 5 7 7 7 7 7 5 5 5 4 3 4 5 5 6 7 7 6 7 9 9 8 7 4 3 2 1 1 1 0 0 1 3 3 3 3 3 3 4 5 6 8 8 8 8 9 9 9 10 11
11 9 7 5 4 4 5 6 5 4 5 6 7 7 8 8 8 9 7 7 9 9 9 10 8 8 10 10 10 10 10 9 7 7 6 5 6 5 4 5 5 6 7 7 6 6 8 6 4 4 4 4 5 6 7 7 7 8 7 7 6 5 3 2 2 1 1 1 0 1 3 2 2 3 3 2 3 4 6 8 8 8 8 8 8 9 10 10
10 7 5 4 3 4 6 6 6 5 5 7 7 7 9 9 9 9 8 8 9 9 9 9 9 9 9 9 9 10 10 9 7 6 5 5 6 5 5 4 4 6 7 6 6 7 8 7 5 5 5 4 4 5 6 6 7 7 7 6 5 5 3 2 2 2 3 2 1 1 1 2 2 2 2 1 3 5 7 8 8 8 8 8 9 9 10 10
8 5 4 3 3 5 6 6 6 5 6 7 8 8 9 9 9 10 9 9 9 9 9 9 9 9 9 9 9 9 9 8 7 6 6 6 6 6 5 4 5 6 7 7 7 7 7 6 5 3 4 4 4 4 4 5 7 7 7 7 6 5 3 3 1 1 3 2 0 0 1 1 0 1 2 1 3 4 6 7 8 8 8 8 9 9 9 10
6 5 4 4 4 5 6 7 6 5 6 8 9 9 10 9 10 10 9 9 10 10 10 10 9 9 9 9 9 8 8 8 7 7 7 6 6 6 5 4 5 6 7 8 7 7 7 6 4 4 5 4 4 5 3 2 5 7 8 8 6 3 2 2 1 1 1 0 1 1 2 2 0 1 2 1 2 3 5 6 7 7 7 8 9 9 9 9
6 5 5 4 4 6 7 7 6 5 6 8 9 10 10 9 9 9 8 9 10 10 10 11 10 9 9 9 9 8 9 9 7 7 8 6 6 6 5 5 4 4 6 8 7 7 7 6 5 4 6 5 3 5 3 1 1 4 7 7 5 3 3 2 2 1 1 1 2 2 2 3 2 2 3 3 1 2 4 5 5 6 7 8 9 9 9 9
6 6 6 5 4 6 7 7 6 6 6 8 9 10 10 9 10 10 9 10 11 10 10 11 11 9 9 10 9 9 9 9 8 8 8 7 6 6 6 6 4 3 4 6 7 7 7 6 5 5 5 5 3 3 3 2 1 3 4 4 3 3 4 3 2 2 2 1 2 1 2 3 4 3 4 4 2 1 3 4 4 4 6 7 7 8 9 9
7 7 7 6 5 6 7 6 6 6 7 9 10 10 10 10 10 10 10 10 10 11 11 12 11 10 9 10 9 9 9 9 9 9 8 8 7 6 5 6 5 3 3 4 6 6 6 6 6 5 4 4 4 4 5 5 4 3 4 4 4 3 4 4 2 2 2 2 2 1 2 4 4 3 4 4 2 1 2 2 2 3 4 6 7 7 8 8
8 7 7 7 6 6 7 6 6 7 8 9 10 10 10 10 10 9 10 11 11 11 12 12 12 11 10 10 9 9 9 9 9 9 9 8 8 7 5 5 6 6 4 3 4 6 6 6 6 5 3 4 5 6 6 6 6 5 4 5 5 4 4 3 2 3 3 2 3 2 2 4 3 3 4 4 3 2 1 1 1 2 4 5 6 7 7 8
8 8 8 7 6 7 7 7 7 8 8 9 10 10 10 10 11 10 10 11 11 11 12 12 12 11 11 11 10 10 10 9 8 8 8 9 9 8 6 5 6 6 5 4 4 6 7 6 6 5 4 5 6 6 5 5 5 4 4 4 4 4 4 4 4 5 3 2 2 2 1 4 4 3 4 4 4 3 1 1 1 2 3 5 6 7 7 8
9 9 9 7 7 8 7 7 8 7 8 9 9 10 10 10 10 10 10 11 11 11 12 12 12 12 11 11 10 10 10 9 9 9 9 8 8 8 7 6 6 6 5 4 5 6 6 6 6 5 4 5 5 4 3 4 3 3 3 3 4 5 5 5 5 5 4 4 3 1 2 4 4 3 3 4 4 3 2 1 1 2 3 4 5 7 7 8
10 10 10 8 7 8 8 8 9 8 9 9 8 9 9 9 10 10 11 12 12 12 13 13 12 12 12 12 11 10 10 9 9 9 9 9 8 7 6 6 6 6 5 5 6 6 6 6 7 6 3 3 3 3 4 4 3 4 4 4 5 4 3 5 5 4 4 6 5 3 3 5 4 2 2 3 4 3 2 1 1 2 3 4 5 6 7 8
10 10 10 9 8 8 8 9 10 10 9 8 8 9 9 9 9 10 11 12 12 13 14 13 13 12 12 12 10 9 9 10 9 9 9 9 8 7 6 5 6 6 5 5 5 5 6 7 8 7 6 5 5 5 6 5 4 4 5 5 4 3 3 5 5 4 5 6 6 5 4 5 4 3 3 3 3 2 2 0 1 2 3 4 5 6 7 8
11 11 10 9 8 8 8 9 9 10 10 9 9 9 10 9 9 9 10 11 12 13 13 13 13 12 11 11 10 9 9 9 9 9 9 9 9 8 6 5 5 5 5 4 4 4 6 7 7 8 8 8 7 6 6 5 4 4 4 4 4 4 3 3 4 5 6 6 6 6 5 5 6 5 5 4 3 3 2 1 1 1 2 3 4 6 7 8
12 11 11 10 9 8 8 9 9 9 10 10 10 10 10 10 9 9 9 11 11 12 13 13 13 13 13 12 11 10 10 9 9 10 10 9 9 8 7 6 5 5 5 5 4 5 6 7 8 7 6 7 7 6 5 4 4 4 4 3 3 3 3 3 4 6 6 4 6 7 6 6 7 7 7 6 4 4 3 3 2 1 2 3 4 5 6 7
13 12 11 11 10 10 9 10 10 10 10 10 10 10 10 9 9 10 10 10 11 12 13 13 13 14 14 13 11 11 11 9 9 10 10 9 9 8 6 6 6 6 6 5 5 6 6 7 9 8 5 5 5 5 4 4 3 3 3 3 3 3 3 4 5 6 5 5 7 7 8 8 7 7 7 6 6 5 4 3 1 1 1 2 3 4 5 7
14 13 12 11 10 11 10 10 11 10 10 10 10 9 9 10 10 10 10 10 11 12 14 14 15 15 14 13 11 11 12 12 11 11 10 9 8 8 7 7 7 6 5 6 6 6 6 7 8 8 6 4 3 4 4 4 4 4 3 3 3 2 2 3 4 5 5 5 6 5 6 6 6 6 6 6 5 4 3 2 1 1 1 2 3 4 5 6
14 14 13 12 11 11 10 10 11 11 10 10 10 9 10 10 10 9 9 10 11 12 13 15 16 16 14 13 12 12 13 14 12 12 11 9 9 9 8 8 7 5 5 6 7 7 6 7 8 8 6 4 4 3 3 4 4 3 3 3 2 1 2 3 3 4 3 4 4 3 5 6 6 6 5 5 4 3 3 2 1 1 1 1 2 3 5 6
16 15 14 13 12 11 11 10 11 11 10 10 10 10 10 10 10 9 9 10 12 12 14 16 16 15 13 13 13 12 13 13 13 13 12 10 9 10 9 8 8 6 4 6 8 7 7 8 8 7 6 6 5 4 4 4 3 2 3 4 2 2 2 3 3 4 4 3 3 3 5 7 6 5 4 4 4 4 3 3 2 2 2 1 2 3 5 6
16 15 14 13 13 12 11 11 11 11 11 12 12 11 10 10 10 8 8 9 10 11 13 15 15 14 13 13 13 13 13 13 13 12 11 9 9 9 8 8 8 6 5 6 7 8 8 8 8 7 7 7 6 5 5 4 3 4 5 5 3 2 2 3 3 3 3 3 3 4 5 5 5 4 4 3 4 5 4 4 3 2 2 2 3 3 5 6
Wind_Direction
348 348 347 346 344 342 340 336 332 328 326 324 324 322 317 314 312 309 305 301 299 300 302 303 307 313 321 322 324 326 279 207 199 197 195 187 165 160 153 146 145 142 140 136 136 140 140 138 136 127 126 128 107 99 88 78 71 43 21 20 6 335 328 321 313 313 316 323 327 326 330 324 307 306 305 308 320 320 320 320 315 316 310 303 288 276 274 270
346 346 345 344 343 341 339 336 332 328 324 321 320 320 315 310 308 306 303 299 297 296 296 299 301 306 313 318 319 309 250 209 191 182 185 173 157 154 150 145 144 142 138 135 138 140 139 142 140 122 120 126 108 95 97 80 55 41 29 23 351 320 345 342 329 329 331 339 349 345 340 332 313 303 307 315 323 325 328 328 324 330 326 312 293 284 281 274
343 344 343 343 342 340 339 336 333 328 324 320 316 316 313 307 303 302 298 294 293 292 291 294 296 303 308 306 307 285 230 186 156 152 153 153 151 148 143 141 141 141 137 136 139 139 141 147 139 119 115 119 112 103 98 72 46 35 29 22 350 337 2 359 3 3 0 22 16 359 351 348 328 314 320 333 343 342 341 336 333 340 337 329 313 302 297 287
342 342 342 342 341 339 337 336 333 328 324 320 315 313 309 303 300 298 294 289 288 287 286 287 291 300 299 294 290 249 199 148 145 155 150 145 142 139 138 138 138 136 134 134 135 134 139 140 124 114 113 110 103 99 87 66 56 34 28 26 7 13 15 9 25 37 37 46 33 17 21 15 356 359 9 7 15 5 359 2 359 2 5 8 358 332 321 303
342 341 341 341 339 337 336 334 332 328 324 320 315 312 307 301 298 295 290 285 282 280 280 283 288 295 292 288 261 221 175 148 157 157 145 141 137 136 136 136 134 132 130 129 128 124 122 115 110 112 116 114 100 94 80 68 63 40 36 39 30 34 30 21 35 46 45 49 42 34 34 32 25 33 33 29 39 34 27 30 32 37 38 41 39 24 19 9
342 341 340 339 338 336 334 333 331 328 324 320 316 312 306 300 296 292 285 280 276 274 276 279 288 296 293 278 228 193 160 155 160 148 142 140 136 136 136 134 132 128 125 120 116 114 105 100 105 115 124 121 106 102 94 64 50 49 46 41 39 43 40 30 37 43 49 54 44 40 52 58 55 49 43 47 53 49 47 50 51 50 52 60 59 52 53 53
342 341 339 338 337 335 334 333 330 327 324 320 316 312 305 298 295 291 283 275 269 267 271 277 289 295 291 251 191 163 148 151 152 147 145 141 138 137 135 132 129 126 122 118 111 109 108 102 104 113 121 124 119 100 86 67 53 61 59 45 47 51 48 47 52 52 58 63 60 66 70 62 61 61 54 54 54 53 56 56 56 59 63 70 65 57 60 63
342 341 339 338 336 335 333 332 330 327 324 321 316 311 304 296 292 288 278 266 258 260 270 283 292 292 279 192 164 150 146 147 148 149 147 142 140 139 135 131 126 122 119 117 113 113 114 109 110 112 107 120 130 108 90 76 59 62 70 61 55 54 55 61 63 62 65 69 73 74 68 67 70 69 61 54 51 53 58 57 59 64 66 68 65 62 63 66
342 341 340 338 336 335 333 332 330 327 325 322 317 311 303 295 291 284 270 251 244 255 273 290 296 286 194 161 150 149 153 150 146 148 147 146 145 141 136 132 123 117 114 109 107 111 115 113 121 126 117 117 120 110 96 81 74 75 76 71 64 61 61 64 63 64 65 66 73 73 72 79 75 66 61 53 48 49 52 58 63 65 66 65 65 66 67 72
342 341 340 338 337 335 334 332 330 328 325 322 317 310 302 296 290 279 257 238 240 254 269 282 281 245 173 158 145 150 158 152 145 147 148 148 147 142 136 132 124 117 113 108 107 110 114 116 122 123 116 108 105 105 101 96 97 90 79 73 70 67 60 59 63 65 65 64 71 77 80 78 66 63 65 52 46 46 48 55 60 65 67 65 65 65 67 74
341 341 341 339 338 337 335 334 331 329 326 323 318 310 302 295 286 271 244 231 241 252 264 269 258 205 174 159 149 153 158 153 148 147 149 149 147 146 142 135 128 119 112 106 110 116 118 126 126 115 106 105 103 98 98 101 101 94 85 76 67 67 61 57 63 64 62 67 74 77 77 69 62 65 66 54 50 49 51 53 54 62 66 66 65 65 69 75
341 341 341 341 340 338 337 335 333 330 328 325 320 311 302 292 280 258 227 225 241 249 258 253 230 195 170 157 158 161 157 153 152 151 151 151 150 152 146 137 129 118 113 107 105 113 121 130 123 106 107 114 111 105 106 105 99 91 85 79 67 63 60 56 58 54 56 65 70 73 70 61 62 66 62 59 58 55 57 57 55 59 62 64 65 68 71 73
341 342 342 342 342 340 339 337 335 334 332 330 325 315 302 289 272 230 208 216 231 238 239 212 198 180 162 160 167 165 157 154 154 153 154 154 153 154 147 139 131 114 109 110 106 113 123 126 114 107 111 109 107 116 117 107 93 85 78 81 73 60 54 53 56 53 57 64 63 72 73 61 62 67 64 64 63 58 58 58 58 59 60 64 67 70 72 71
342 342 343 344 344 343 342 341 340 338 336 334 329 316 302 289 243 195 190 198 204 212 206 182 170 164 161 164 167 162 158 155 153 154 155 156 154 152 145 135 128 114 104 111 113 120 127 119 109 108 106 102 111 117 111 96 86 87 83 78 75 70 59 51 56 59 61 62 62 73 76 68 66 66 63 65 66 63 59 57 57 56 59 63 66 71 73 72
342 343 344 346 346 345 345 345 345 343 340 336 332 321 311 282 178 168 168 169 176 183 182 177 170 164 163 165 165 160 154 150 148 151 155 157 155 152 148 139 134 119 106 115 114 119 127 119 107 105 105 106 112 110 100 91 87 87 90 78 71 77 69 55 60 66 66 62 63 72 75 69 68 67 62 63 67 65 61 59 56 54 56 60 65 70 73 74
342 343 345 347 347 348 349 349 350 349 346 344 344 347 19 129 147 149 155 152 142 172 194 195 177 163 163 167 165 158 152 150 150 152 156 156 154 155 154 146 140 120 110 121 118 116 120 116 107 105 110 111 107 100 92 89 84 84 95 93 80 80 76 66 64 64 67 67 63 69 79 74 68 68 64 61 67 68 65 62 58 56 55 58 64 67 71 72
342 343 345 348 350 351 353 354 355 357 0 4 18 57 97 123 139 137 131 110 92 76 73 167 169 162 165 166 164 161 157 157 155 153 154 151 150 152 149 142 136 122 116 120 119 117 117 117 117 112 107 106 104 97 90 89 92 91 94 95 90 87 84 78 70 61 63 69 67 67 75 75 68 69 66 61 66 68 64 62 59 59 58 59 62 65 68 69
342 343 345 349 352 354 355 357 1 6 14 28 51 87 117 127 134 127 107 80 75 70 80 121 137 153 163 163 164 168 167 164 159 154 152 149 148 144 142 141 136 127 121 119 117 117 120 121 122 118 107 105 110 103 96 102 110 109 104 100 94 88 85 84 82 72 66 69 70 68 71 70 66 65 64 61 65 65 62 62 61 59 59 58 61 64 65 65
341 343 345 349 353 355 356 0 5 10 20 41 68 96 113 118 119 114 93 72 75 79 92 116 128 148 164 168 168 170 168 165 159 154 152 151 151 145 139 139 136 128 124 124 120 116 124 124 120 125 124 124 126 117 112 113 112 110 106 103 100 92 86 86 86 83 78 73 68 68 71 69 64 61 59 58 61 62 60 61 61 60 60 59 61 63 62 62
340 342 344 349 352 354 357 2 7 15 28 50 93 104 98 95 101 97 72 75 90 95 107 129 133 144 162 168 167 166 164 162 158 158 156 154 154 150 142 139 134 127 127 135 137 130 126 124 131 140 144 144 132 119 115 110 106 104 98 97 101 98 91 89 87 81 81 78 68 68 71 66 63 60 56 55 58 57 54 54 55 57 59 59 60 61 59 59
339 341 343 347 348 351 357 2 9 20 36 61 92 104 99 96 103 95 65 79 95 100 117 137 137 145 161 163 163 160 157 157 159 160 158 154 149 148 149 142 134 132 137 144 146 139 128 131 146 144 143 145 134 123 116 108 104 101 99 99 99 99 96 89 86 79 78 81 71 68 70 64 60 60 56 56 58 54 52 53 52 52 55 57 58 57 56 56
338 340 341 343 343 346 352 357 9 22 43 68 83 97 102 90 98 108 99 101 96 103 126 140 138 146 154 154 156 153 148 147 152 153 150 147 143 144 148 139 136 145 147 141 140 133 131 153 167 146 134 131 128 126 117 110 108 104 102 102 100 104 100 88 83 77 77 83 77 73 73 65 59 61 59 56 58 57 55 57 54 51 52 53 54 55 55 55
336 338 340 340 339 340 345 349 1 29 51 70 82 93 91 64 79 107 110 117 115 111 126 137 138 141 140 143 148 146 142 144 147 147 146 144 141 141 143 139 142 151 147 142 146 143 145 166 170 150 138 128 127 130 120 113 112 109 107 105 108 113 105 99 96 83 77 84 86 81 76 67 59 59 58 55 57 59 56 56 55 53 52 50 51 55 55 55
333 336 338 337 336 335 336 339 358 36 41 72 99 92 71 50 79 109 113 114 119 126 131 136 139 141 139 140 143 143 144 148 147 147 145 142 140 138 140 142 140 148 162 155 147 151 163 170 150 143 141 133 133 139 130 124 121 119 114 108 113 114 103 104 108 95 82 82 83 79 73 65 58 56 54 51 53 56 53 52 52 52 52 50 51 54 54 54
329 334 335 335 333 329 326 321 5 5 2 107 130 81 44 38 85 121 114 109 121 131 130 133 137 142 144 141 142 145 146 148 151 152 147 142 143 141 140 141 135 145 165 149 138 145 162 154 139 139 144 140 140 150 150 140 131 133 130 114 113 113 106 106 107 97 86 83 76 73 71 60 53 55 52 49 52 51 49 50 49 48 49 48 48 50 51 52
326 329 333 334 331 327 320 256 255 315 303 165 167 305 357 26 120 134 118 112 126 131 132 137 138 143 145 141 144 145 141 146 153 151 148 149 149 143 142 142 131 140 152 143 136 142 146 135 132 141 144 142 141 155 169 153 138 142 145 124 113 112 111 110 106 93 89 95 71 69 81 72 56 54 48 47 52 49 46 46 44 45 46 46 47 48 50 51
322 324 328 331 330 327 310 247 270 278 238 242 285 299 300 137 145 143 123 116 130 136 140 146 145 145 146 145 148 145 144 151 149 145 150 157 153 142 145 147 134 145 150 140 134 143 145 121 118 135 136 142 151 166 178 159 143 149 146 128 119 117 115 109 100 89 92 98 74 66 82 79 61 54 47 48 53 48 45 44 40 42 43 44 47 48 50 50
317 319 322 325 326 320 294 269 272 245 226 251 274 269 156 152 152 144 127 124 141 143 141 146 148 149 150 151 152 149 150 149 141 147 157 156 153 142 146 153 151 157 148 136 144 156 146 128 133 138 134 145 159 168 167 151 146 155 138 124 120 118 114 106 96 90 87 87 74 56 66 73 60 52 50 51 57 51 44 45 43 42 43 44 47 48 48 48
314 314 316 318 318 307 286 274 254 228 225 245 247 192 154 150 153 143 128 134 149 146 142 144 148 154 155 152 154 153 153 148 143 151 153 150 152 144 148 155 151 154 146 139 153 162 148 144 147 139 135 151 150 151 155 146 149 153 131 118 114 112 108 102 98 93 81 75 71 42 55 76 68 52 53 52 56 53 46 49 47 43 44 45 46 47 47 46
311 309 309 311 310 297 282 267 236 217 221 231 217 185 158 154 152 142 138 149 151 150 150 150 152 158 156 154 157 158 156 156 152 152 149 151 153 144 149 152 145 151 154 143 151 163 160 156 154 138 133 147 132 127 141 143 146 144 131 122 118 114 107 100 98 90 72 55 44 27 49 80 81 66 67 60 55 53 52 51 46 42 42 43 46 47 47 46
308 305 303 304 300 287 269 247 216 202 211 215 204 185 162 160 154 144 155 162 157 155 154 154 157 158 156 159 165 164 159 159 157 153 152 153 150 140 146 153 147 143 150 150 152 164 150 139 156 151 133 132 125 119 127 142 145 143 143 142 131 119 111 108 85 66 67 48 32 41 44 74 99 101 83 65 54 53 57 54 45 40 38 40 44 46 45 45
305 302 299 296 289 274 246 221 200 194 205 198 189 180 163 162 163 157 164 166 163 164 161 163 167 163 164 167 170 170 163 163 163 153 151 151 147 150 158 168 162 146 155 168 166 163 156 154 162 150 135 133 131 130 129 141 150 148 151 148 134 118 112 127 96 33 58 76 89 57 48 72 111 123 99 63 49 47 51 52 46 40 37 37 41 43 43 45
302 300 298 291 276 255 226 205 191 187 197 186 177 173 158 157 171 171 168 167 169 172 169 171 173 168 170 171 172 175 169 168 170 155 151 148 140 155 170 171 164 157 167 173 167 164 168 173 154 133 139 146 149 153 155 163 165 162 162 158 149 131 113 149 175 24 7 188 150 51 57 76 110 128 122 71 44 40 44 47 44 38 36 36 38 43 45 45
300 297 292 281 255 231 210 195 190 188 188 177 169 168 159 162 175 172 171 176 174 174 172 171 174 171 172 175 177 177 173 174 171 155 154 150 141 153 168 173 170 160 160 161 163 162 160 165 162 153 163 160 160 171 171 170 170 175 179 170 167 161 145 171 183 146 177 160 65 26 64 98 125 143 156 92 47 46 47 44 40 36 35 36 40 44 45 44
295 286 273 266 238 212 200 195 196 189 180 174 166 166 167 174 178 172 177 181 174 176 175 168 165 167 176 183 182 178 174 177 173 159 162 167 163 164 161 176 183 162 158 163 170 164 158 169 183 184 181 157 154 178 168 159 171 187 187 174 182 186 157 138 144 148 150 133 23 16 93 150 156 173 188 90 49 46 46 40 35 32 31 37 41 43 43 44
286 271 254 250 225 200 192 194 196 188 181 175 169 174 178 180 178 174 178 179 174 176 175 168 162 164 178 186 182 179 175 176 175 168 175 179 178 176 166 176 184 173 170 171 174 171 161 173 195 190 172 151 151 176 163 160 179 187 187 190 198 193 156 122 109 87 110 119 302 292 185 227 129 222 218 79 40 36 40 35 30 27 30 39 41 41 42 44
273 257 242 245 227 199 192 193 195 192 184 174 173 183 187 182 179 179 181 181 179 175 169 171 171 170 180 183 182 186 183 182 180 172 176 180 180 182 180 182 183 184 185 176 175 179 167 177 205 181 165 167 151 143 128 141 180 184 192 201 199 193 192 155 136 14 43 111 258 250 231 236 185 231 226 198 31 35 37 30 26 28 38 45 44 44 45 44
260 242 231 238 224 199 194 196 199 195 183 177 183 190 189 184 184 187 186 183 183 176 169 175 180 177 180 181 186 192 186 186 191 179 177 181 181 180 183 186 179 181 190 178 174 180 169 176 209 192 184 198 166 142 136 70 157 173 186 193 190 196 222 197 164 212 236 256 271 280 270 247 224 223 218 208 194 59 41 29 26 30 42 48 46 47 45 42
248 231 225 234 223 201 197 199 201 195 182 182 190 193 191 191 193 195 191 184 183 180 178 185 185 181 183 183 188 193 188 190 195 187 183 183 180 178 180 182 175 175 192 179 176 186 176 172 199 210 203 204 185 169 188 191 127 142 168 193 210 212 208 195 189 207 201 213 252 283 302 270 240 222 200 198 205 97 56 33 25 30 41 45 45 46 43 38
236 223 221 231 225 208 203 202 200 194 187 190 194 195 197 198 198 199 195 190 188 186 187 189 185 184 190 189 188 191 191 193 192 188 190 187 178 180 187 184 181 188 188 169 174 188 186 174 188 215 218 200 200 205 202 196 186 180 192 213 226 220 205 199 209 224 195 195 213 229 297 275 247 215 189 190 196 126 85 46 30 36 43 42 40 42 39 34
227 220 222 226 222 212 207 201 198 197 194 195 197 198 201 201 200 202 199 194 192 190 190 189 185 187 191 190 190 191 190 192 191 188 191 190 181 182 192 189 187 192 184 167 179 190 194 183 181 196 199 186 203 213 206 204 202 197 204 215 217 214 207 201 234 247 220 214 214 202 266 273 245 203 186 183 174 145 113 64 47 43 42 40 37 37 35 31
219 217 220 221 217 211 204 201 204 202 198 198 200 201 203 204 204 205 202 196 195 194 193 192 191 192 193 192 195 195 189 190 193 189 189 193 190 190 197 191 187 189 183 190 206 198 192 184 175 185 190 191 211 220 206 202 199 192 202 213 217 225 219 207 228 237 225 231 233 212 264 267 239 199 180 177 168 151 131 108 83 47 38 37 34 33 32 29
216 218 220 219 217 210 203 207 211 208 205 206 206 204 203 204 205 207 205 202 201 199 197 199 198 198 199 197 196 196 192 190 193 193 192 196 197 200 203 197 192 192 186 198 213 203 193 185 174 183 202 209 221 230 213 201 191 195 223 229 226 238 235 225 234 237 217 213 221 231 274 262 238 199 174 169 159 144 141 137 82 46 32 31 30 30 30 27
217 219 219 220 219 210 205 207 207 209 213 211 207 206 204 203 204 206 207 207 206 200 199 202 202 202 204 200 196 198 195 191 195 198 194 193 198 202 202 199 197 199 202 205 205 201 200 194 177 171 187 213 230 247 241 234 226 225 241 251 247 243 234 237 250 250 225 219 214 214 247 250 232 205 184 169 153 145 155 131 58 37 26 24 23 23 24 21
216 216 218 221 219 209 205 204 199 202 209 206 204 208 205 203 206 207 206 207 207 202 202 205 203 201 204 202 200 204 200 194 196 201 198 197 204 206 203 204 200 199 207 208 201 197 199 196 185 177 181 197 213 229 231 229 233 237 243 256 259 249 233 238 246 239 229 226 219 219 234 234 221 210 201 191 174 163 165 91 14 13 14 11 13 17 16 13
212 214 217 218 217 208 205 206 200 199 202 199 201 206 203 204 211 209 205 207 208 205 204 207 205 202 205 204 203 209 210 204 198 198 199 202 208 210 208 209 203 196 200 205 208 205 197 198 197 191 193 204 212 221 224 217 217 228 236 248 258 259 251 240 239 238 232 223 227 234 229 210 208 209 208 210 204 193 203 249 297 334 358 1 7 13 11 8
212 214 213 212 216 213 208 210 204 199 201 199 199 205 205 208 214 211 207 208 208 206 205 207 205 204 206 204 203 209 211 207 200 197 200 206 212 216 216 214 215 219 219 218 224 211 197 203 206 198 205 218 216 221 228 217 214 223 228 242 257 269 268 252 244 243 228 214 236 241 222 207 212 213 209 210 208 209 224 238 246 295 344 356 4 9 9 6
213 215 212 209 215 215 211 212 206 199 201 202 203 206 207 210 212 211 210 210 208 206 205 208 209 208 207 203 201 208 208 201 199 201 203 208 214 221 227 227 233 240 232 227 225 205 193 205 209 203 212 226 221 229 231 215 222 238 248 261 271 280 269 249 251 257 243 235 245 233 214 216 222 217 214 211 208 215 225 225 229 295 336 353 5 10 7 2
213 214 214 213 215 215 215 216 208 198 201 206 207 207 206 208 215 217 212 208 211 211 205 206 212 212 211 205 198 204 207 199 199 208 208 208 214 220 225 229 236 241 231 223 222 207 195 206 211 203 204 220 234 246 240 223 230 251 269 275 274 281 276 254 256 268 261 252 251 227 212 228 235 223 219 213 209 215 216 214 244 289 320 349 4 7 2 357
213 214 216 214 215 218 220 219 210 201 205 210 208 208 207 206 213 222 214 204 208 212 205 204 209 209 211 209 201 206 210 201 199 207 207 207 217 222 224 224 224 233 234 220 218 214 202 205 211 201 197 220 242 247 250 240 228 240 267 273 264 282 301 283 260 254 251 258 267 234 213 234 239 222 213 210 206 204 202 209 237 248 251 321 356 358 355 352
213 214 214 212 215 222 222 220 212 204 209 212 209 210 212 209 210 214 211 205 203 205 205 204 205 205 207 209 207 213 215 207 203 204 202 204 214 219 224 219 208 215 232 219 216 218 207 204 209 201 198 221 236 237 251 250 229 242 264 256 248 262 267 257 250 244 236 237 249 234 222 229 228 209 199 206 200 194 200 208 214 232 250 291 338 346 347 347
215 216 215 211 215 220 220 219 216 209 210 212 211 213 214 216 215 205 203 207 203 202 206 204 201 202 207 210 214 218 218 214 212 206 201 207 212 213 217 212 202 208 219 213 214 218 210 204 207 205 204 219 231 232 238 242 247 261 255 239 238 265 252 246 261 258 238 217 219 237 235 223 210 199 202 214 207 200 205 211 212 223 243 300 327 336 341 342